[[{"header":{"parameterUnit":"m.s-1","parameterCategory":1,"la1":30.2991,"la2":30.254,"lo1":-89.0895,"lo2":-89.0444,"dy":0.0017,"dx":0.0017,"nx":28,"ny":28,"refTime":"2025-04-04T09:00:00:Z","depth":0,"parameterNumber":2,"parameterNumberName":"U-component_of_WINDS"},"data":[0,0,0,0,0,0,0,0,0,0,0,0,0,0,0,0,0,0,0,0,0,0,0,0,0,0,0,0,0,0,0,0,0,0,0,0,0,0,0,0,0,0,0,0,0,0,0,0,0,0,0,0,0,0,0,0,0,0,-4.548,-4.5482,0,-4.5609,-4.5611,-4.5612,-4.5655,-4.5655,-4.5654,-4.5654,-4.5782,-4.5786,-4.579,0,0,0,0,0,0,0,0,0,0,0,0,0,-4.5268,-4.5272,-4.548,-4.5482,-4.5483,-4.5609,-4.5611,-4.5612,-4.5655,-4.5655,-4.5654,-4.5653,-4.5781,-4.5785,-4.579,0,0,0,0,0,0,0,0,0,0,0,0,0,-4.5375,-4.5273,-4.548,-4.552,-4.5525,-4.5609,-4.5611,-4.5613,-4.5655,-4.5655,-4.5654,-4.5653,-4.5779,-4.5785,-4.5791,-4.5843,0,0,-4.5808,-4.5811,0,0,0,0,0,0,0,0,-4.5369,-4.5383,-4.5512,-4.5517,-4.5523,-4.5615,-4.5583,-4.569,-4.5656,-4.5606,-4.5654,-4.5653,-4.5727,-4.5737,-4.5763,-4.5849,-4.5854,-4.5809,-4.5813,-4.5815,-4.5817,0,0,0,0,0,0,0,-4.5361,-4.5377,-4.5531,-4.5514,-4.5521,-4.5531,-4.5545,-4.5604,-4.5669,-4.561,-4.5613,-4.5628,-4.573,-4.5757,-4.5766,-4.5856,-4.5809,-4.5814,-4.5818,-4.582,-4.5992,-4.5993,0,0,0,0,0,0,-4.5348,-4.5371,-4.5527,-4.5535,-4.5443,-4.5535,-4.5551,-4.5586,-4.5669,-4.568,-4.5629,-4.563,-4.5747,-4.5759,-4.5771,-4.5837,-4.5815,-4.582,-4.5824,-4.5991,-4.5992,-4.5993,0,0,0,0,0,0,-4.5343,-4.5361,-4.5522,-4.5454,-4.5475,-4.554,-4.5579,-4.5589,-4.5617,-4.5683,-4.5694,-4.5645,-4.5747,-4.5762,-4.5825,-4.5842,-4.5823,-4.5828,-4.5989,-4.5991,-4.5992,-4.597,0,0,0,0,0,0,-4.5337,-4.5359,-4.538,-4.5454,-4.5479,-4.5574,-4.558,-4.5592,-4.5627,-4.563,-4.5701,-4.5712,-4.5748,-4.5816,-4.5831,-4.585,-4.5833,-4.5988,-4.599,-4.5992,-4.5969,-4.5971,-4.5972,0,0,0,0,0,-4.5329,-4.5368,-4.5381,-4.54,-4.5506,-4.5575,-4.5589,-4.563,-4.5629,-4.565,-4.5692,-4.571,-4.5838,-4.5822,-4.5839,-4.586,-4.5987,-4.599,-4.5992,-4.5969,-4.597,-4.5972,0,0,0,0,0,0,-4.5293,-4.5378,-4.5394,-4.5458,-4.5509,-4.5582,-4.561,-4.5631,-4.5682,-4.5682,-4.573,-4.5746,-4.5805,-4.5839,-4.5819,-4.5915,-4.5914,-4.5919,-4.589,-4.5892,-4.5893,-4.5883,-4.5838,0,0,0,0,0,-4.5292,-4.5342,-4.5414,-4.5463,-4.5489,-4.5545,-4.5576,-4.5604,-4.5659,-4.568,-4.5727,-4.5778,-4.5831,-4.5864,-4.5915,-4.5975,-4.5991,-4.5999,-4.6,-4.6,-4.6004,-4.6039,-4.6043,-4.6001,-4.6001,-4.6001,0,0,-4.5291,-4.5345,-4.5373,-4.5458,-4.55,-4.555,-4.5563,-4.5614,-4.5651,-4.5688,-4.5749,-4.5786,-4.5846,-4.5908,-4.5937,-4.5938,-4.602,-4.6003,-4.6003,-4.6007,-4.6041,-4.6045,-4.6049,-4.6002,-4.6002,-4.6002,0,0,-4.5315,-4.5361,-4.5407,-4.5451,-4.5516,-4.5554,-4.5565,-4.5636,-4.5662,-4.5725,-4.5753,-4.5798,-4.5886,-4.5928,-4.5961,-4.6003,-4.6021,-4.6019,-4.6023,-4.6057,-4.606,-4.6063,-4.6077,-4.6082,-4.6023,-4.6023,-4.6023,0,-4.5305,-4.5382,-4.5428,-4.5479,-4.5515,-4.5552,-4.5599,-4.5639,-4.5717,-4.5741,-4.5741,-4.5854,-4.5897,-4.5969,-4.598,-4.6005,-4.6019,-4.601,-4.6056,-4.606,-4.6063,-4.6077,-4.6083,-4.6022,-4.6022,-4.6022,-4.6022,0,-4.5367,-4.542,-4.5449,-4.5526,-4.5566,-4.5614,-4.5667,-4.5701,-4.5726,-4.5763,-4.5827,-4.5881,-4.5944,-4.5964,-4.5988,-4.604,-4.6038,-4.6047,-4.6046,-4.6066,-4.608,-4.6085,-4.6021,-4.6021,-4.6021,-4.6021,0,0,-4.5369,-4.5472,-4.5482,-4.5517,-4.5593,-4.5634,-4.5685,-4.5748,-4.5777,-4.583,-4.5873,-4.5948,-4.5957,-4.5994,-4.6024,-4.6053,-4.6082,-4.6058,-4.606,-4.606,-4.6142,-4.6134,-4.614,-4.6095,-4.6096,-4.6097,-4.6137,0,-4.5402,-4.5495,-4.5538,-4.5611,-4.566,-4.5697,-4.5741,-4.5791,-4.5828,-4.5875,-4.5915,-4.5967,-4.5975,-4.5998,-4.6029,-4.6072,-4.6099,-4.607,-4.6134,-4.6136,-4.6117,-4.6147,-4.6139,-4.6173,-4.6142,-4.6143,-4.6144,0,-4.5453,-4.5507,-4.5585,-4.5656,-4.5678,-4.5717,-4.5779,-4.5823,-4.5882,-4.5907,-4.5949,-4.5978,-4.6032,-4.6029,-4.6103,-4.6082,-4.6112,-4.6137,-4.6139,-4.6146,-4.614,-4.6153,-4.6185,-4.6189,-4.6153,-4.6153,-4.6152,0,-4.5446,-4.5539,-4.5598,-4.5627,-4.5711,-4.5737,-4.5774,-4.5832,-4.5867,-4.5921,-4.5945,-4.6004,-4.6036,-4.608,-4.6124,-4.6118,-4.6194,-4.6195,-4.6216,-4.6214,-4.6228,-4.6227,-4.6264,-4.6249,-4.6249,-4.6249,-4.6249,0,-4.5477,-4.5523,-4.5596,-4.5632,-4.5685,-4.5734,-4.5785,-4.5823,-4.5875,-4.5919,-4.5954,-4.5994,-4.605,-4.6097,-4.6132,-4.6188,-4.6203,-4.6223,-4.6232,-4.622,-4.6217,-4.6238,-4.6236,-4.6251,-4.625,-4.625,-4.625,0,-4.5477,-4.5528,-4.5595,-4.567,-4.569,-4.5725,-4.5789,-4.5825,-4.5864,-4.5919,-4.5935,-4.5996,-4.6053,-4.6102,-4.6177,-4.6201,-4.6259,-4.6269,-4.6239,-4.6243,-4.6261,-4.6258,-4.6312,-4.6322,-4.6301,-4.6301,-4.6302,0,-4.5494,-4.553,-4.561,-4.5642,-4.5678,-4.573,-4.5767,-4.5817,-4.5854,-4.5924,-4.5951,-4.6012,-4.6063,-4.6153,-4.6203,-4.6261,-4.6273,-4.6288,-4.6281,-4.6268,-4.6272,-4.6269,-4.6272,-4.6287,-4.6287,-4.6287,-4.6287,0,-4.5517,-4.554,-4.5593,-4.5654,-4.5698,-4.5748,-4.5799,-4.5824,-4.5884,-4.5923,-4.5983,-4.6023,-4.61,-4.6159,-4.6223,-4.626,-4.6283,-4.6289,-4.6297,-4.6284,-4.6265,-4.6275,-4.6239,-4.6287,-4.6287,-4.6287,-4.6287,-4.6287,-4.5525,-4.5559,-4.5621,-4.5678,-4.5722,-4.577,-4.5808,-4.5852,-4.5903,-4.5971,-4.5998,-4.6059,-4.6117,-4.6205,-4.6242,-4.629,-4.6294,-4.6305,-4.6308,-4.6309,-4.6307,-4.6258,-4.6302,-4.6302,-4.6302,-4.6303,-4.6303,0,-4.5549,-4.5591,-4.5643,-4.5715,-4.576,-4.578,-4.5838,-4.5874,-4.5928,-4.5981,-4.6031,-4.6099,-4.6157,-4.6213,-4.6274,-4.6302,-4.6314,-4.6316,-4.6314,-4.6322,-4.6301,-4.6288,-4.6305,-4.6305,-4.6305,-4.6305,-4.6305,-4.6305,-4.5567,-4.5626,-4.5657,-4.5738,-4.578,-4.5841,-4.5872,-4.5916,-4.5959,-4.6034,-4.6083,-4.612,-4.6174,-4.6239,-4.6293,-4.6308,-4.6329,-4.6327,-4.6345,-4.6324,-4.6323,-4.6322,-4.631,-4.6332,-4.6332,-4.6362,-4.6362,-4.6362]},{"header":{"parameterUnit":"m.s-1","parameterCategory":1,"la1":30.2991,"la2":30.254,"lo1":-89.0895,"lo2":-89.0444,"dy":0.0017,"dx":0.0017,"nx":28,"ny":28,"refTime":"2025-04-04T09:00:00:Z","depth":0,"parameterNumber":3,"parameterNumberName":"V-component_of_WINDS"},"data":[0,0,0,0,0,0,0,0,0,0,0,0,0,0,0,0,0,0,0,0,0,0,0,0,0,0,0,0,0,0,0,0,0,0,0,0,0,0,0,0,0,0,0,0,0,0,0,0,0,0,0,0,0,0,0,0,0,0,4.6252,4.6253,0,4.6323,4.6324,4.6325,4.6347,4.6347,4.6346,4.6346,4.6414,4.6416,4.6418,0,0,0,0,0,0,0,0,0,0,0,0,0,4.6134,4.6136,4.6252,4.6253,4.6254,4.6323,4.6324,4.6325,4.6347,4.6347,4.6346,4.6346,4.6414,4.6416,4.6419,0,0,0,0,0,0,0,0,0,0,0,0,0,4.6193,4.6136,4.6252,4.6273,4.6276,4.6323,4.6324,4.6325,4.6347,4.6347,4.6346,4.6346,4.6413,4.6416,4.6419,4.6448,0,0,4.6429,4.643,0,0,0,0,0,0,0,0,4.6189,4.6197,4.6269,4.6272,4.6275,4.6326,4.6307,4.6366,4.6347,4.632,4.6346,4.6345,4.6385,4.639,4.6405,4.6451,4.6454,4.6429,4.6431,4.6432,4.6433,0,0,0,0,0,0,0,4.6185,4.6194,4.628,4.627,4.6274,4.6279,4.6287,4.6318,4.6354,4.6322,4.6324,4.6332,4.6386,4.6401,4.6406,4.6455,4.6429,4.6432,4.6434,4.6435,4.6532,4.6533,0,0,0,0,0,0,4.6178,4.6191,4.6278,4.6282,4.623,4.6281,4.629,4.631,4.6354,4.636,4.6333,4.6333,4.6396,4.6403,4.6409,4.6448,4.6432,4.6435,4.6437,4.6531,4.6532,4.6533,0,0,0,0,0,0,4.6175,4.6186,4.6275,4.6237,4.6249,4.6284,4.6306,4.6312,4.6327,4.6362,4.6368,4.6342,4.6396,4.6404,4.6439,4.645,4.6437,4.644,4.653,4.6532,4.6532,4.6525,0,0,0,0,0,0,4.6172,4.6184,4.6196,4.6237,4.6251,4.6305,4.6307,4.6313,4.6333,4.6334,4.6372,4.6378,4.6396,4.6434,4.6442,4.6454,4.6442,4.653,4.6531,4.6532,4.6524,4.6525,4.6526,0,0,0,0,0,4.6168,4.619,4.6197,4.6207,4.6266,4.6305,4.6313,4.6335,4.6333,4.6346,4.6369,4.6377,4.6448,4.6438,4.6447,4.646,4.6529,4.6531,4.6532,4.6523,4.6525,4.6526,0,0,0,0,0,0,4.6147,4.6195,4.6204,4.624,4.6269,4.6309,4.6325,4.6336,4.6364,4.6364,4.6389,4.6397,4.6431,4.6449,4.6437,4.6492,4.6489,4.6492,4.6479,4.6481,4.6482,4.6477,4.6445,0,0,0,0,0,4.6147,4.6176,4.6216,4.6244,4.6258,4.6289,4.6307,4.6322,4.6352,4.6364,4.6389,4.6417,4.6446,4.6464,4.6492,4.6527,4.6536,4.654,4.6541,4.6542,4.6545,4.6566,4.6569,4.6538,4.6538,4.6538,0,0,4.6147,4.6177,4.6193,4.6241,4.6265,4.6294,4.6299,4.6328,4.635,4.6367,4.6403,4.6422,4.6455,4.6491,4.6507,4.6507,4.6556,4.6544,4.6544,4.6547,4.6568,4.6571,4.6574,4.6539,4.6539,4.6538,0,0,4.6162,4.6187,4.6214,4.6239,4.6276,4.6297,4.6303,4.6343,4.6357,4.6393,4.6408,4.6433,4.6482,4.6506,4.6524,4.655,4.6559,4.6558,4.6564,4.6585,4.6587,4.659,4.6601,4.6604,4.6561,4.6561,4.6561,0,4.6156,4.6201,4.6226,4.6256,4.6277,4.6297,4.6325,4.6347,4.6391,4.6404,4.6403,4.6467,4.649,4.6532,4.6539,4.6553,4.6561,4.6554,4.6585,4.6588,4.659,4.6601,4.6605,4.6561,4.6561,4.6561,4.6561,0,4.6194,4.6225,4.6242,4.6287,4.631,4.6338,4.6367,4.6387,4.6401,4.6422,4.6459,4.6488,4.6524,4.6534,4.6546,4.6579,4.6578,4.6581,4.6578,4.6593,4.6603,4.6608,4.656,4.6561,4.6561,4.6561,0,0,4.6196,4.6256,4.6262,4.6284,4.6327,4.6351,4.6381,4.6418,4.6436,4.6465,4.6491,4.6533,4.6537,4.6558,4.6573,4.6591,4.6613,4.6592,4.6594,4.6596,4.6652,4.665,4.6654,4.6619,4.662,4.662,4.665,0,4.6217,4.6273,4.6298,4.6342,4.6372,4.6392,4.6418,4.6448,4.6468,4.6496,4.6518,4.6548,4.655,4.6564,4.6582,4.6606,4.6624,4.6604,4.6643,4.6644,4.6636,4.666,4.6658,4.6684,4.6654,4.6654,4.6655,0,4.6249,4.6282,4.633,4.6373,4.6386,4.6409,4.6446,4.6473,4.6507,4.652,4.6545,4.656,4.6592,4.6588,4.6633,4.6619,4.6636,4.665,4.6652,4.6657,4.6651,4.6667,4.6693,4.6697,4.6661,4.6661,4.666,0,4.6248,4.6304,4.6341,4.6358,4.6408,4.6425,4.6446,4.648,4.6501,4.6533,4.6547,4.6581,4.66,4.6626,4.665,4.6644,4.6694,4.669,4.6706,4.6706,4.6716,4.6715,4.6747,4.6726,4.6725,4.6725,4.6725,0,4.627,4.6298,4.6342,4.6364,4.6398,4.6426,4.6458,4.648,4.6511,4.6538,4.6556,4.6581,4.6611,4.664,4.6658,4.6694,4.6702,4.6714,4.6719,4.6713,4.6712,4.6725,4.6724,4.6726,4.6726,4.6726,4.6726,0,4.6274,4.6304,4.6346,4.6391,4.6403,4.6425,4.6464,4.6486,4.6509,4.6543,4.6553,4.6588,4.6623,4.6649,4.6694,4.6707,4.6745,4.6749,4.6734,4.6737,4.6752,4.6751,4.6794,4.6801,4.6774,4.6774,4.6774,0,4.6286,4.6309,4.6358,4.6379,4.6401,4.6433,4.6456,4.6485,4.6507,4.655,4.6567,4.6604,4.6636,4.6691,4.6719,4.6754,4.676,4.6773,4.6765,4.676,4.6762,4.6761,4.6764,4.6774,4.6774,4.6774,4.6774,0,4.6305,4.6319,4.6352,4.6392,4.6419,4.6451,4.6482,4.6498,4.6532,4.6557,4.6595,4.6619,4.6666,4.6703,4.6741,4.6762,4.6774,4.6777,4.6782,4.6777,4.6768,4.6775,4.6738,4.6775,4.6775,4.6775,4.6775,4.6775,4.6314,4.6337,4.6376,4.6413,4.6441,4.647,4.6495,4.6522,4.6554,4.6597,4.6611,4.665,4.6685,4.6738,4.676,4.6791,4.6791,4.6799,4.6801,4.6803,4.6803,4.6763,4.6797,4.6797,4.6797,4.6797,4.6797,0,4.6336,4.6362,4.6396,4.6442,4.6471,4.6482,4.6518,4.6542,4.6577,4.6609,4.6641,4.6684,4.6721,4.6753,4.6791,4.681,4.6816,4.6819,4.6818,4.6823,4.68,4.6792,4.6813,4.6813,4.6813,4.6813,4.6813,4.6813,4.635,4.639,4.641,4.6464,4.649,4.653,4.655,4.6578,4.6605,4.6654,4.6685,4.6707,4.674,4.6781,4.6815,4.6823,4.6837,4.6838,4.6848,4.6826,4.6824,4.6822,4.6815,4.6841,4.6841,4.6869,4.6869,4.6869]}]]